Find Starlink 30878

NORAD ID: 58359 Int'l Des: 2023-177 Owner: SPXS Country: US Constellation: starlink operational
LEOCIRCULAR

实时位置

正在加载3D地球...

关于 Starlink 30878

正在加载描述...

即将过境

Passes for default location (London). Set your location on the main map for personalized predictions.

高度历史

Loading altitude history...

两行轨道根数

1 58359U 23177J 26127.96573117 .00002996 00000-0 11838-3 0 9997
2 58359 43.0049 19.1822 0001542 266.3504 93.7172 15.27575737137259
Epoch: May 7, 2026 • Age: 5 hours

当前状态

高度 482.3 km
速度 7.63 km/s
星下点 10.77°N, 108.83°W
发射日期 Nov 18, 2023
运行时间 2.4 years
类型 internet

技术详情

分类 Payload
质量 730.00 kg
干质量 700.00 kg
总质量 730.00 kg
长度 0.30 m
直径 4.10 m
跨度 29.00 m
形状 Box + pan
制造商 SPXS
平台类型 Starlink V2M
阶段状态 In Orbit
所有者/国家 SPXS/US

Most Searched